Grand Junction, CO

10:54 AM MDT on October 22, 2019 (GMT -0600)
Walker

Weather History for KGJT - May, 2019

Change the Weather History Date:

Friday, May 10, 2019

  Actual Average Record
Temperature  
Mean Temperature 53 °F -  
Max Temperature 61 °F - 91 °F (2018)
Min Temperature 44 °F - 30 °F (1930)
Degree Days  
Heating Degree Days 12    
Month to date heating degree days 110  
Growing Degree Days 2 (Base 50)    
Moisture  
Dew Point 39 °F    
Average Humidity 58    
Maximum Humidity 76    
Minimum Humidity 39    
Precipitation  
Precipitation T in - 0.65 in (1946)
Month to date precipitation 0.12  
Year to date precipitation 5.17  
Snow  
Snow 0.00 in - - ()
Month to date snowfall 0.0  
Snow Depth 0.00 in    
Sea Level Pressure  
Sea Level Pressure 29.87 in    
Wind  
Wind Speed 5 mph (ESE)    
Max Wind Speed 20 mph    
Max Gust Speed 23 mph    
Visibility 10 miles    
Events Rain    
T = Trace of Precipitation, MM = Missing Value Source: NWS Daily Summary

Daily Weather History Graph

Daily Weather History Graph

Search for Another Location

Airport or City:

Astronomy

May. 10, 2019 Rise Set
Actual Time 6:05 AM MDT 8:15 PM MDT
Civil Twilight 5:36 AM MDT 8:45 PM MDT
Nautical Twilight 5:00 AM MDT 9:21 PM MDT
Astronomical Twilight 4:20 AM MDT 10:01 PM MDT
Moon 11:09 AM MDT (5/10) 1:11 AM MDT (5/10)
Length of Visible Light 15h 09m
Length of Day
14h 09m
Waxing Crescent, 36% of the Moon is Illuminated
May 10
Waxing Crescent
May 11
First Quarter
May 18
Full
May 26
Last Quarter
Jun 3
New

Hourly Weather History & Observations

Time (MDT) Temp. Windchill Dew Point Humidity Pressure Visibility Wind Dir Wind Speed Gust Speed Precip Events Conditions
12:53 AM 50.0 °F - 39.0 °F 66% 29.86 in 10.0 mi South 3.5 mph - N/A   Overcast
1:53 AM 48.9 °F - 39.0 °F 69% 29.85 in 10.0 mi NE 5.8 mph - N/A   Overcast
2:53 AM 48.9 °F - 37.0 °F 64% 29.85 in 10.0 mi ENE 9.2 mph - N/A   Overcast
3:53 AM 48.0 °F - 37.9 °F 68% 29.86 in 10.0 mi Variable 4.6 mph - N/A   Overcast
4:53 AM 48.9 °F - 37.0 °F 64% 29.84 in 10.0 mi Calm Calm - N/A   Overcast
5:53 AM 46.9 °F - 37.9 °F 71% 29.86 in 10.0 mi SW 4.6 mph - N/A   Overcast
6:53 AM 46.9 °F - 39.0 °F 74% 29.87 in 10.0 mi ESE 4.6 mph - N/A   Scattered Clouds
7:53 AM 51.1 °F - 39.9 °F 66% 29.90 in 10.0 mi Calm Calm - N/A   Overcast
8:53 AM 53.1 °F - 36.0 °F 52% 29.90 in 10.0 mi ESE 4.6 mph - N/A   Overcast
10:53 AM 57.0 °F - 37.0 °F 47% 29.87 in 10.0 mi Calm Calm - N/A   Scattered Clouds
11:53 AM 57.9 °F - 37.0 °F 46% 29.86 in 10.0 mi Variable 4.6 mph - N/A   Mostly Cloudy
12:53 PM 60.1 °F - 37.0 °F 42% 29.85 in 10.0 mi WSW 6.9 mph - N/A   Scattered Clouds
1:53 PM 61.0 °F - 36.0 °F 39% 29.85 in 10.0 mi West 8.1 mph - N/A   Clear
2:53 PM 57.9 °F - 39.0 °F 49% 29.86 in 10.0 mi NE 12.7 mph - N/A   Overcast
3:53 PM 57.0 °F - 39.9 °F 53% 29.86 in 10.0 mi Variable 4.6 mph - 0.00 in Rain Light Rain
4:35 PM 57.9 °F - 41.0 °F 53% 29.96 in 10.0 mi NE 12.7 mph - 0.00 in   Mostly Cloudy
4:53 PM 57.9 °F - 41.0 °F 53% 29.85 in 10.0 mi SSW 10.4 mph - 0.00 in   Mostly Cloudy
5:53 PM 57.9 °F - 39.9 °F 51% 29.85 in 10.0 mi SSW 9.2 mph - N/A   Mostly Cloudy
6:53 PM 53.1 °F - 43.0 °F 69% 29.87 in 10.0 mi NW 4.6 mph - 0.00 in   Overcast
7:53 PM 55.9 °F - 41.0 °F 57% 29.84 in 10.0 mi Calm Calm - 0.00 in   Mostly Cloudy
8:53 PM 50.0 °F - 42.1 °F 74% 29.87 in 10.0 mi NW 4.6 mph - N/A   Clear
9:53 PM 48.0 °F - 39.0 °F 71% 29.89 in 10.0 mi East 3.5 mph - N/A   Clear
10:53 PM 46.0 °F 43.9 °F 39.0 °F 76% 29.91 in 10.0 mi ESE 4.6 mph - N/A   Clear
11:53 PM 44.1 °F 41.5 °F 37.9 °F 79% 29.92 in 10.0 mi East 4.6 mph - N/A   Clear